TimeCDT,TemperatureF,Dew PointF,Humidity,Sea Level PressureIn,VisibilityMPH,Wind Direction,Wind SpeedMPH,Gust SpeedMPH,PrecipitationIn,Events,Conditions,WindDirDegrees,DateUTC
12:55 AM,63.0,53.6,71,29.96,10.0,North,6.9,-,N/A,,Clear,350,2012-10-16 05:55:00
1:55 AM,61.3,52.5,73,29.95,10.0,North,6.9,-,N/A,,Clear,360,2012-10-16 06:55:00
2:55 AM,58.6,51.3,76,29.95,10.0,North,6.9,-,N/A,,Clear,360,2012-10-16 07:55:00
3:55 AM,55.4,49.8,81,29.94,10.0,North,5.8,-,N/A,,Clear,360,2012-10-16 08:55:00
4:56 AM,54.3,48.6,81,29.96,10.0,Calm,Calm,-,N/A,,Clear,0,2012-10-16 09:56:00
5:55 AM,53.6,48.2,82,29.97,10.0,NE,2.3,-,N/A,,Clear,40,2012-10-16 10:55:00
6:55 AM,52.9,48.4,85,29.97,10.0,North,4.6,-,N/A,,Partly Cloudy,360,2012-10-16 11:55:00
7:56 AM,57.6,49.1,73,29.99,10.0,NNE,4.6,-,N/A,,Partly Cloudy,20,2012-10-16 12:56:00
8:55 AM,65.8,46.9,50,30.01,10.0,NE,10.4,-,N/A,,Partly Cloudy,50,2012-10-16 13:55:00
9:43 AM,68.0,46.4,46,29.99,10.0,ENE,10.4,-,N/A,,Partly Cloudy,60,2012-10-16 14:43:00
9:58 AM,69.8,46.4,43,30.00,10.0,ENE,9.2,-,N/A,,Partly Cloudy,60,2012-10-16 14:58:00
10:56 AM,73.8,43.2,33,29.99,10.0,NE,12.7,-,N/A,,Mostly Cloudy,50,2012-10-16 15:56:00
11:57 AM,74.7,44.1,33,29.98,10.0,NNE,9.2,-,N/A,,Mostly Cloudy,30,2012-10-16 16:57:00
12:57 PM,77.0,41.9,28,29.94,10.0,North,11.5,-,N/A,,Mostly Cloudy,360,2012-10-16 17:57:00
1:57 PM,77.7,41.5,27,29.94,10.0,NE,10.4,-,N/A,,Mostly Cloudy,40,2012-10-16 18:57:00
2:58 PM,77.4,40.3,26,29.91,10.0,NNW,6.9,-,N/A,,Mostly Cloudy,340,2012-10-16 19:58:00
3:55 PM,77.7,42.6,29,29.91,10.0,NNE,9.2,-,N/A,,Mostly Cloudy,20,2012-10-16 20:55:00
4:55 PM,75.6,37.9,26,29.88,10.0,North,6.9,-,N/A,,Overcast,10,2012-10-16 21:55:00
5:55 PM,72.3,39.7,31,29.88,10.0,North,2.3,-,N/A,,Mostly Cloudy,10,2012-10-16 22:55:00
6:55 PM,68.4,44.4,42,29.88,10.0,NNE,2.3,-,N/A,,Mostly Cloudy,20,2012-10-16 23:55:00
7:55 PM,66.6,45.9,47,29.88,10.0,NNE,4.6,-,N/A,,Overcast,30,2012-10-17 00:55:00
8:55 PM,65.7,47.8,53,29.90,10.0,North,2.3,-,N/A,,Overcast,360,2012-10-17 01:55:00
9:55 PM,62.4,48.4,60,29.91,10.0,North,2.3,-,N/A,,Overcast,360,2012-10-17 02:55:00
10:55 PM,61.2,48.4,63,29.91,10.0,NNW,2.3,-,N/A,,Overcast,330,2012-10-17 03:55:00
11:55 PM,61.2,48.7,64,29.91,10.0,North,3.5,-,N/A,,Overcast,350,2012-10-17 04:55:00